OE3GWU-13 Weather Reports


Display with metric or nautical units.
time (UTC)temp
F
wind
direction
speed
MPH
gust
MPH
rain 1hr
in
rain 24hr
in
rain mn
in
humidity
%
barometer
mb
20260502193004 54 349 1.0 1.0 0.00 0.00 0.00 47 1023.4
20260502191004 52 345 0.0 2.0 0.00 0.00 0.00 53 1023.4
20260502190004 52 351 0.0 1.0 0.00 0.00 0.00 53 1023.4
20260502185004 52 2 0.0 1.0 0.00 0.00 0.00 55 1023.3
20260502183004 55 354 0.0 0.0 0.00 0.00 0.00 49 1023.4
20260502181004 57 350 0.0 1.0 0.00 0.00 0.00 46 1023.0
20260502164004 64 351 2.0 6.0 0.00 0.00 0.00 35 1023.4
20260502163004 65 10 2.0 3.0 0.00 0.00 0.00 34 1023.7
20260502162004 65 228 2.0 6.0 0.00 0.00 0.00 35 1023.7
20260502152004 67 179 6.0 7.0 0.00 0.00 0.00 32 1024.0
20260502151004 67 19 3.0 5.0 0.00 0.00 0.00 33 1024.0
20260502123004 69 170 3.0 6.0 0.00 0.00 0.00 42 1025.4
20260502121005 69 219 5.0 7.0 0.00 0.00 0.00 34 1025.7
20260502114004 67 193 3.0 7.0 0.00 0.00 0.00 33 1025.7
20260502113004 67 218 2.0 7.0 0.00 0.00 0.00 34 1026.1
20260502111004 66 5 0.0 3.0 0.00 0.00 0.00 39 1026.1
20260502110004 66 354 1.0 5.0 0.00 0.00 0.00 33 1026.4
20260502105004 67 349 0.0 5.0 0.00 0.00 0.00 31 1026.4
20260502103004 64 71 1.0 6.0 0.00 0.00 0.00 31 1026.8
20260502091004 61 274 2.0 6.0 0.00 0.00 0.00 37 1027.4
20260502071004 59 349 1.0 3.0 0.00 0.00 0.00 49 1027.8
20260502070004 58 353 1.0 5.0 0.00 0.00 0.00 49 1027.8
20260502065005 56 331 1.0 3.0 0.00 0.00 0.00 53 1027.8
20260502064004 56 231 3.0 3.0 0.00 0.00 0.00 55 1027.8
20260502061004 55 213 2.0 2.0 0.00 0.00 0.00 58 1027.8
20260502054004 50 1 1.0 1.0 0.00 0.00 0.00 74 1027.8
20260502050004 41 14 1.0 2.0 0.00 0.00 0.00 84 1027.8
20260502044004 39 4 1.0 1.0 0.00 0.00 0.00 88 1027.8
20260502043004 37 349 0.0 1.0 0.00 0.00 0.00 90 1027.8
20260502042004 37 3 1.0 1.0 0.00 0.00 0.00 89 1027.8
20260502041004 38 4 1.0 1.0 0.00 0.00 0.00 87 1027.8
20260502035004 39 6 1.0 1.0 0.00 0.00 0.00 86 1027.7
20260502032004 38 6 1.0 1.0 0.00 0.00 0.00 87 1027.8
20260502030008 38 359 1.0 1.0 0.00 0.00 0.00 88 1027.8
20260502025004 38 352 0.0 1.0 0.00 0.00 0.00 88 1027.8
20260502023004 39 2 0.0 1.0 0.00 0.00 0.00 86 1027.8
20260502022004 38 354 0.0 1.0 0.00 0.00 0.00 87 1027.8
20260502021004 39 9 1.0 1.0 0.00 0.00 0.00 86 1027.8
20260502020004 39 5 1.0 1.0 0.00 0.00 0.00 85 1028.1
20260502015004 39 3 1.0 1.0 0.00 0.00 0.00 84 1027.8
20260502012004 40 354 0.0 1.0 0.00 0.00 0.00 84 1028.1
20260502011004 40 0 1.0 1.0 0.00 0.00 0.00 83 1028.1
20260502010004 39 7 1.0 1.0 0.00 0.00 0.00 85 1028.4
20260502005004 39 358 1.0 1.0 0.00 0.00 0.00 84 1028.4
20260502004005 39 4 1.0 1.0 0.00 0.00 0.00 84 1028.4
20260502002005 39 12 1.0 2.0 0.00 0.00 0.00 84 1028.8
20260502001006 39 13 1.0 1.0 0.00 0.00 0.00 85 1028.8
20260502000004 40 4 1.0 1.0 0.00 0.00 0.00 83 1028.8
20260501235004 40 5 1.0 1.0 0.00 0.00 0.00 81 1028.4
20260501234004 40 5 1.0 1.0 0.00 0.00 0.00 81 1028.8
20260501233004 41 3 1.0 1.0 0.00 0.00 0.00 80 1028.8
20260501232004 41 2 1.0 1.0 0.00 0.00 0.00 79 1029.0
20260501231004 41 4 1.0 1.0 0.00 0.00 0.00 80 1028.8
20260501230004 41 11 1.0 1.0 0.00 0.00 0.00 81 1029.0
20260501224004 41 10 1.0 1.0 0.00 0.00 0.00 79 1029.1
20260501222004 41 356 0.0 1.0 0.00 0.00 0.00 81 1029.1
20260501220004 41 6 1.0 2.0 0.00 0.00 0.00 79 1028.8
20260501214004 41 0 1.0 1.0 0.00 0.00 0.00 79 1029.1
20260501210004 41 355 0.0 0.0 0.00 0.00 0.00 79 1029.1
20260501205004 41 353 0.0 1.0 0.00 0.00 0.00 78 1029.1
20260501203004 42 6 0.0 0.0 0.00 0.00 0.00 78 1029.1
20260501201004 44 353 0.0 0.0 0.00 0.00 0.00 73 1029.1
20260501200004 43 347 0.0 0.0 0.00 0.00 0.00 75 1029.5